Location: Janaillat
(46.0500°N, 1.7500°E)
Time: 10:53:43
(UTC+00:00)

Daily predictions for brighter satellites

Satellite Brightness Start Highest point End
(mag) Time Altitude Azimuth Time Altitude Azimuth Time Altitude Azimuth
USA 229 DEB 4.0 16:28:10 10° NW 16:35:27 66° NE 16:43:11 10° SE
USA 229 4.0 16:28:16 10° NW 16:35:33 66° NE 16:43:16 10° SE
Cosmos 1500 Rocket 3.8 16:35:58 10° N 16:40:18 49° ENE 16:44:34 10° SSE
Spot 1 4.4 16:35:56 10° NNE 16:40:39 66° ESE 16:45:35 10° S
Nadezhda 4 Rocket 4.0 16:35:51 10° N 16:42:11 72° E 16:48:30 10° SSE
SL-24 R/B - RUBIN 2 4.5 16:38:13 10° NNW 16:42:15 29° NE 16:46:04 10° ESE
ATLAS 2AS CENTAUR R/B 4.4 16:36:24 10° WNW 16:42:30 24° NNW 16:48:24 10° NNE
SeaSat 1 4.2 16:38:59 10° N 16:43:06 27° NW 16:47:12 10° WSW
Cosmos 2322 Rocket 4.1 16:42:09 10° NNE 16:43:10 10° NNE 16:44:12 10° NE
Cosmos 990 Rocket 3.9 16:39:00 10° NNW 16:44:14 73° ENE 16:49:23 10° SSE
FengYun 1-2 T 4.3 16:40:26 10° SSE 16:45:56 60° ENE 16:51:23 10° N
Cosmos 1697 Rocket 2.8 16:40:56 10° NNW 16:46:29 56° ENE 16:51:58 10° SE
NOAA 6 4.2 16:44:23 10° SE 16:49:20 51° ENE 16:54:18 10° N
Sich 1 3.8 16:46:10 10° NNE 16:49:57 29° ENE 16:53:44 10° SE
Cosmos 1980 Rocket 2.8 16:45:29 10° NNW 16:50:38 34° NE 16:55:44 10° ESE
Cosmos 2221 2.8 16:46:55 10° SSW 16:51:10 70° W 16:55:29 10° N
Cosmos 1805 Rocket 4.0 16:47:56 10° N 16:52:01 39° ENE 16:56:04 10° SE
Cosmos 2369 4.1 16:47:11 10° NNW 16:52:40 43° NE 16:58:05 10° SE
USA 234 3.3 16:49:26 10° ESE 16:55:56 72° NNE 17:02:27 10° NW
Cosmos 1842 Rocket 3.9 16:51:36 10° SSW 16:56:03 73° W 17:00:33 10° N
CZ-4C R/B 3.3 16:50:10 10° NNW 16:56:42 41° NE 17:04:21 10° ESE
Cosmos 1092 Rocket 4.1 16:51:48 10° N 16:58:05 57° ENE 17:04:17 10° SSE
Cosmos 2084 3.6 16:54:20 10° NW 16:58:39 81° SW 17:03:07 10° SE
NOSS 3-1 (A) 4.2 16:51:34 10° NW 16:59:06 90° ENE 17:07:56 10° SE
Cosmos 1812 4.2 16:57:28 10° SE 17:00:08 18° E 17:02:43 10° NE
USA 306 4.2 16:56:35 10° WNW 17:00:16 28° N 17:03:35 12° NE
SL-16 R/B 3.7 16:58:07 10° N 17:01:31 16° NE 17:04:15 12° ENE
ISS -3.3 16:58:43 10° WNW 17:02:00 44° NNE 17:04:58 12° E
Meteor 1-25 Rocket 4.2 16:58:12 10° N 17:03:46 70° ENE 17:09:22 10° SSE
NOSS 2-2 (D) 4.5 16:59:41 10° NNW 17:04:37 51° NE 17:11:24 10° ESE
NOSS 2-2 (E) 4.4 16:59:49 10° NNW 17:04:59 60° NE 17:12:12 10° SE
SMAP 3.0 17:00:41 10° SSE 17:05:17 69° ENE 17:09:56 10° N
Cosmos 2082 Rocket 2.9 17:00:31 10° S 17:05:37 35° ESE 17:10:42 10° NE
Meteor PRIRODA 4.2 17:02:25 10° S 17:06:00 61° WSW 17:09:37 10° NNW
Cosmos 1939 Rocket 2.8 17:02:25 10° SSE 17:06:31 77° ENE 17:10:37 10° N
CORIOLIS 4.1 17:02:55 10° SSE 17:08:16 67° ENE 17:13:39 10° N
NOAA 12 4.5 17:06:12 10° S 17:11:31 72° WSW 17:16:51 10° NNW
Cosmos 44 Rocket 4.5 17:07:39 10° NNW 17:11:37 23° NE 17:14:23 15° E
CZ-4B DEB 4.2 17:09:12 10° SSE 17:14:38 66° ENE 17:20:06 10° N
Cosmos 2278 4.2 17:11:21 10° NNW 17:16:42 39° NE 17:21:59 10° ESE
Cosmos 1602 3.6 17:13:25 10° N 17:17:16 72° E 17:21:08 10° SSE
USA 307 4.2 17:15:25 10° WNW 17:19:09 28° N 17:21:38 16° NE
AQUARIUS 4.1 17:14:43 10° SSE 17:19:12 80° ENE 17:23:43 10° N
Cosmos 1627 Rocket 4.4 17:13:23 10° N 17:19:34 70° E 17:25:40 10° SSE
Cosmos 540 Rocket 3.4 17:15:30 10° S 17:20:33 69° ESE 17:25:39 10° NNE
Cosmos 2034 Rocket 4.4 17:15:49 10° SSW 17:21:55 66° W 17:28:04 10° N
ARGOS 3.7 17:20:01 10° SE 17:24:55 36° ENE 17:29:48 10° N
Cosmos 2279 Rocket 4.3 17:19:53 10° SSE 17:25:40 42° E 17:31:27 10° NNE
COSMOS 2406 3.2 17:20:27 10° SSW 17:26:12 82° ESE 17:31:58 10° NNE
COSMO-SKYMED 1 3.4 17:23:24 14° NE 17:26:31 31° E 17:30:22 10° SSE
Cosmos 1833 Rocket 2.8 17:21:54 10° SSW 17:27:31 77° WNW 17:33:12 10° NNE
Cosmos 1782 2.7 17:25:05 10° S 17:29:02 67° E 17:33:00 10° NNE
Cosmos 1814 Rocket 4.5 17:25:19 10° S 17:30:09 40° ESE 17:33:44 17° NE
Meteor 2-21 4.3 17:24:28 10° N 17:30:34 75° E 17:36:36 10° SSE
ATLAS 5 CENTAUR R/B 3.1 17:24:08 10° NW 17:31:33 31° NNE 17:33:09 23° ENE
ATLAS CENTAUR R/B 4.1 17:33:47 10° NNW 17:34:43 11° NNW 17:35:40 10° N
Cosmos 1633 Rocket 3.4 17:31:04 10° N 17:35:12 39° ENE 17:39:19 10° SE
Cosmos 1818 4.2 17:30:49 10° NNW 17:35:52 36° NE 17:38:50 21° E
YAOGAN 1 4.4 17:39:35 15° NNE 17:39:35 15° NNE 17:40:41 10° NNE
Cosmos 1898 Rocket 4.4 17:34:14 10° NNW 17:39:20 53° WSW 17:44:22 10° S
CZ-2D R/B 3.1 17:36:09 10° SSE 17:40:00 85° ENE 17:43:51 10° NNW
GEOS 3 Rocket 4.4 17:37:58 22° E 17:40:18 32° NE 17:44:52 10° NNW
USA 308 4.1 17:38:07 10° WNW 17:41:49 28° N 17:43:13 23° NE
Cosmos 1634 Rocket 4.0 17:36:13 10° S 17:42:32 87° E 17:48:55 10° N
SJ-11-01 4.5 17:38:14 10° SE 17:42:47 47° ENE 17:47:20 10° N
COSMOS 2455 2.8 17:37:26 10° SSW 17:43:27 79° ESE 17:48:14 17° NE
PAYLOAD B 4.2 17:38:51 10° SSE 17:44:27 89° ENE 17:50:06 10° NNW
CZ-2C R/B 2.7 17:40:56 10° NNE 17:46:01 52° E 17:51:02 10° S
Cosmos 1500 3.2 17:43:02 10° NNW 17:46:47 78° W 17:50:30 10° S
CZ-4B R/B 3.1 17:41:38 10° SSE 17:47:00 67° ENE 17:52:19 10° N
Cosmos 1151 Rocket 3.0 17:43:49 10° S 17:48:03 58° E 17:51:27 16° NNE
Cosmos 2026 Rocket 4.1 17:42:14 10° NNW 17:48:22 75° W 17:54:24 10° S
Lacrosse 5 rocket 2.0 17:46:36 10° NW 17:50:09 33° NNE 17:50:35 32° NE
Okean O Rocket 1.7 17:46:44 10° SSE 17:51:05 54° ENE 17:55:27 10° N
Cosmos 2208 Rocket 4.2 17:54:06 10° S 17:59:17 51° ESE 18:01:39 30° NE
CZ-4 R/B 4.3 17:56:19 10° SSE 18:00:23 63° ENE 18:04:30 10° N
Cosmos 1666 Rocket 3.5 17:56:37 10° N 18:01:06 89° E 18:05:30 10° S
Meteor 1-11 Rocket 4.1 17:57:53 10° N 18:03:08 38° ENE 18:05:46 25° ESE
H-2A R/B 2.3 17:58:01 10° S 18:03:11 69° WSW 18:08:14 10° NNW
Cosmos 1470 Rocket 3.7 18:00:00 10° N 18:04:18 47° ENE 18:08:37 10° SSE
Cosmos 2150 Rocket 4.3 17:59:26 10° N 18:04:19 40° ENE 18:04:48 39° ENE
USA 267 3.7 18:01:04 22° NE 18:05:12 54° NNW 18:11:31 10° W
Cosmos 1328 Rocket 3.5 18:01:11 10° S 18:05:34 64° E 18:07:30 32° NNE
Cosmos 1655 Rocket 4.1 18:00:10 10° N 18:06:26 53° ENE 18:12:37 10° SSE
Cosmos 2360 Rocket 3.7 18:04:17 10° N 18:07:10 20° NNE 18:07:10 20° NNE
USA 305 3.9 18:04:51 10° NW 18:08:40 31° NNE 18:08:46 31° NNE
Landsat 5 3.3 18:08:41 55° ENE 18:09:08 59° ESE 18:13:03 10° S
Cosmos 2180 Rocket 4.4 18:08:00 10° S 18:14:19 76° E 18:20:37 10° NNE
SKYMED 2 3.5 18:12:01 23° N 18:14:43 84° WNW 18:19:04 10° SSW
Cosmos 841 Rocket 4.1 18:09:43 10° SW 18:14:46 54° WNW 18:18:54 15° N
Cosmos 1666 3.0 18:12:33 10° NNW 18:16:15 64° W 18:19:55 10° S
Feng Yun 1-1 Rocket 4.3 18:10:36 10° SSE 18:16:27 65° ENE 18:22:15 10° N
Meteor 2-8 Rocket 4.3 18:11:47 10° S 18:17:54 78° E 18:24:06 10° NNE
ATLAS CENTAUR R/B 3.1 18:11:05 10° WSW 18:19:11 46° NW 18:20:43 33° NNE
Cosmos 1125 Rocket 3.6 18:17:21 10° NNW 18:22:14 51° NE 18:22:14 51° NE
Cosmos 2322 Rocket 2.8 18:23:29 10° NNW 18:27:49 38° NNE 18:27:49 38° NNE
SL-08 RB Rocket 3.7 18:29:41 10° S 18:34:20 81° WSW 18:38:58 10° NNW
Cosmos 1980 Rocket 3.4 18:29:25 10° NW 18:34:44 43° WSW 18:40:00 10° S
Cosmos 1812 4.3 18:32:05 10° SW 18:35:37 34° WNW 18:37:47 19° NNW
ATLAS 2AS CENTAUR R/B 4.3 18:30:51 10° NW 18:36:16 20° N 18:37:27 20° NNE
ISS -2.1 18:35:35 10° WNW 18:37:59 34° WSW 18:37:59 34° WSW
USA 234 4.4 18:33:09 10° SSE 18:39:13 40° SW 18:45:19 10° WNW
USA 306 4.3 18:36:59 10° NW 18:39:35 29° NNW 18:39:35 29° NNW
CZ-4C R/B 3.3 18:38:30 10° NW 18:45:47 67° WSW 18:54:12 10° SSE
SL-16 R/B 2.2 18:41:01 10° NNW 18:46:11 67° NNE 18:46:11 67° NNE
Cosmos 2082 Rocket 3.3 18:44:17 10° SW 18:49:37 40° NW 18:52:35 23° N
Cosmos 44 Rocket 3.5 18:48:46 10° NW 18:53:10 65° WNW 18:53:10 65° WNW
Cosmos 2333 Rocket 4.2 18:53:06 10° N 18:54:27 16° N 18:54:27 16° N
COSMO-SKYMED 1 4.4 19:00:37 20° NNW 19:02:35 28° WNW 19:06:18 10° SW
GEOS 3 Rocket 4.3 19:19:06 52° WNW 19:19:06 52° WNW 19:23:16 10° NW
Cosmos 1818 4.4 19:14:21 10° NW 19:19:33 47° WSW 19:19:33 47° WSW
Okean O Rocket 4.4 19:24:52 10° SW 19:27:45 17° W 19:30:39 10° NW
Lacrosse 5 rocket 4.1 19:25:30 10° WNW 19:26:12 15° WNW 19:26:12 15° WNW
BREEZE-M DEB (TANK) 4.3 19:24:35 10° SW 19:44:57 82° SW 19:44:57 82° SW
USA 267 4.4 19:48:25 33° NNW 19:48:25 33° NNW 19:53:13 10° WNW
Cosmos 2360 Rocket 4.4 19:47:34 10° NNW 19:48:57 18° NNW 19:48:57 18° NNW
Cosmos 2322 Rocket 4.4 20:07:44 10° NW 20:09:40 20° NW 20:09:40 20° NW
